Wind_Speed
12 15 17 13 10 9 8 8 7 6 5 4 5 7 6 5 7 8 7 7 6 6 7 7 8 8 8
8 10 12 12 12 12 10 9 7 5 5 5 6 6 7 8 6 3 3 5 6 7 8 9 9 10 9
10 10 10 9 9 10 7 6 7 8 9 9 9 8 8 8 7 6 6 10 10 10 10 11 12 12 13
12 10 10 8 8 6 4 5 7 8 3 2 2 3 5 6 8 12 15 15 14 14 13 11 11 13 14
11 7 7 7 6 4 4 5 6 5 4 4 6 10 8 9 11 13 14 14 13 13 13 12 12 11 12
11 11 10 9 9 9 7 3 2 4 3 9 11 9 9 5 9 10 14 13 13 12 11 11 10 11 12
16 16 13 15 11 10 11 8 7 8 7 10 10 11 9 12 11 13 12 12 12 12 11 11 12 12 13
24 21 19 16 15 13 11 11 11 13 10 6 8 11 12 9 10 9 7 5 3 4 6 9 11 11 12
21 20 19 17 16 14 12 8 7 7 11 8 8 7 11 11 3 5 6 7 4 1 2 4 6 8 9
17 17 17 17 16 18 16 14 11 4 9 11 6 3 4 5 4 8 12 9 11 18 20 12 13 12 13
18 17 17 17 18 19 21 21 15 15 10 10 8 8 7 6 11 15 19 24 23 16 16 20 21 17 17
19 19 19 19 18 18 18 20 23 24 19 17 12 14 11 11 11 12 18 24 25 24 21 22 22 21 22
18 19 20 17 16 17 18 20 23 23 22 22 24 22 21 18 14 16 18 19 23 24 21 22 21 19 20
16 17 16 15 16 16 18 17 17 16 19 22 24 25 22 22 20 23 22 15 18 19 20 25 24 24 23
18 12 14 15 17 15 14 13 17 16 14 12 13 17 22 20 18 20 21 23 24 25 20 24 29 25 22
18 16 15 16 17 17 14 13 17 18 18 15 15 13 14 21 26 26 26 27 26 25 27 24 27 24 22
23 21 20 19 17 13 13 16 17 19 21 19 17 19 8 11 22 19 25 24 23 24 23 23 23 25 24
Wind_Direction
268 280 294 300 300 298 295 294 294 288 282 274 265 258 266 265 292 280 280 294 300 284 279 291 299 303 265
264 270 277 290 297 299 296 286 276 265 258 250 240 234 245 274 288 275 320 306 298 289 281 274 269 273 282
258 266 278 279 286 294 288 283 292 287 272 251 238 242 257 265 251 244 295 304 292 287 285 270 261 259 261
249 257 260 264 263 251 254 274 309 309 282 250 250 291 290 274 264 270 288 295 295 298 299 293 281 267 264
240 238 240 249 237 230 250 285 305 199 197 214 307 321 308 287 287 293 296 293 290 292 296 291 283 276 270
238 241 242 233 234 243 264 299 294 215 239 279 297 298 309 294 307 307 307 299 290 287 282 284 288 275 272
233 234 238 241 234 217 222 227 229 249 277 286 282 285 294 295 288 289 283 284 286 278 272 266 271 274 273
242 248 249 249 241 242 237 233 245 255 247 244 265 277 298 306 305 283 266 269 284 312 303 280 275 275 274
246 250 252 247 243 233 221 205 241 231 211 226 252 271 293 300 216 227 183 171 161 65 345 301 298 297 286
246 248 248 245 236 240 236 227 224 244 230 202 205 249 294 255 245 204 200 229 270 294 300 282 273 277 279
253 253 249 247 246 244 242 242 230 234 218 219 241 235 232 266 267 260 259 274 285 284 278 285 283 274 273
253 253 249 248 250 255 264 263 257 256 255 249 242 233 234 257 263 271 276 285 286 280 275 283 285 278 274
250 253 260 266 270 268 267 264 263 260 254 251 251 248 245 250 261 270 278 280 283 281 275 276 272 273 278
257 267 272 270 271 266 264 266 269 265 259 255 254 251 245 246 251 260 263 260 273 274 275 276 273 269 264
252 256 258 265 260 254 257 256 246 258 260 262 261 259 250 241 250 257 265 264 264 270 266 267 270 267 264
244 240 238 240 249 255 262 252 259 261 260 259 258 251 246 255 253 260 260 262 266 265 263 258 267 271 269
232 231 238 247 256 250 248 245 251 254 256 253 236 232 237 260 267 249 250 256 258 260 259 254 262 269 267
Height
790 789 787 786 786 785 783 782 781 781 780 779 780 783 782 781 779 781 780 780 780 778 777 776 776 776 776
786 786 786 784 782 780 780 779 779 778 777 778 779 779 779 780 778 778 775 777 776 775 773 772 773 775 774
781 780 780 782 781 780 777 776 775 774 775 775 776 776 776 775 775 774 775 776 775 773 771 770 770 770 772
778 777 777 776 775 776 777 776 775 773 772 771 771 772 772 771 770 770 770 770 768 767 766 765 764 765 767
773 773 773 773 773 771 772 772 772 771 771 771 771 770 769 767 767 766 764 764 764 763 761 761 762 763 763
769 768 768 768 769 769 769 769 769 769 769 769 768 768 767 766 766 766 765 762 760 759 759 759 759 759 759
760 761 761 761 763 764 766 766 767 766 767 765 765 764 765 765 764 762 760 759 757 755 755 756 757 757 757
753 753 754 756 756 757 758 760 761 762 763 763 759 759 759 758 757 756 754 754 754 753 753 754 754 754 753
749 749 749 750 750 751 752 754 755 754 755 756 754 753 751 751 750 750 751 751 751 751 752 752 752 751 750
743 743 744 745 746 745 747 747 748 749 747 750 748 750 748 745 745 746 747 746 746 746 747 747 747 747 745
736 737 738 739 740 740 740 741 741 741 742 743 742 744 745 743 741 741 741 740 740 740 741 741 740 740 740
729 730 731 732 733 734 735 735 735 735 738 738 737 738 738 738 737 734 733 733 733 732 732 733 734 733 731
723 724 724 725 726 727 727 728 728 727 729 731 730 732 733 732 730 728 729 726 726 724 725 724 725 726 724
718 718 720 720 720 720 721 721 720 721 721 722 723 725 725 725 725 722 723 723 719 719 719 717 716 716 716
711 712 713 714 716 717 715 715 715 714 715 716 717 717 717 718 717 716 715 715 713 713 713 709 706 706 705
703 705 707 709 712 712 709 710 709 708 708 710 712 712 711 708 709 707 708 707 706 705 704 702 697 697 697
696 697 700 703 704 702 703 704 703 703 701 703 704 705 703 700 698 701 698 697 698 696 695 693 691 689 688